Weather History for KMPV - November, 2012

Change the Weather History Date:

Sunday, November 4, 2012

  Actual Average Record
Temperature  
Mean Temperature 34 °F 40 °F  
Max Temperature 36 °F 49 °F 71 °F (1982)
Min Temperature 31 °F 30 °F 14 °F (2013)
Degree Days  
Heating Degree Days 31 25  
Month to date heating degree days 105 100  
Since 1 July heating degree days 916 1056  
Cooling Degree Days 0 0  
Month to date cooling degree days 0  
Year to date cooling degree days 264  
Moisture  
Dew Point 30 °F    
Average Humidity 84    
Maximum Humidity 92    
Minimum Humidity 75    
Precipitation  
Precipitation T in 0.11 in 1.60 in (1983)
Month to date precipitation T 0.45  
Year to date precipitation 29.45 31.81  
Sea Level Pressure  
Sea Level Pressure 29.96 in    
Wind  
Wind Speed 8 mph (NW)    
Max Wind Speed 16 mph    
Max Gust Speed 23 mph    
Visibility 10 miles    
Events Snow    
T = Trace of Precipitation, MM = Missing Value Source: NWS Daily Summary

Daily Weather History Graph

Daily Weather History Graph

Search for Another Location

Airport or City:

Trip Planner

Search our weather history database for the weather conditions in past years. The results will help you decide how hot, cold, wet, or windy it might be!

Date:

Astronomy

Nov. 04, 2012 Rise Set
Actual Time 6:31 AM EST 4:35 PM EST
Civil Twilight 6:01 AM EST 5:05 PM EST
Nautical Twilight 5:26 AM EST 5:40 PM EST
Astronomical Twilight 4:53 AM EST 6:13 PM EST
Moon 9:08 PM EST (11/4) 11:16 AM EST (11/4)
Length of Visible Light 11h 04m
Length of Day
10h 03m
Waning Gibbous, 72% of the Moon is Illuminated
Nov 4
Waning Gibbous
Nov 6
Last Quarter
Nov 13
New
Nov 20
First Quarter
Nov 28
Full

Hourly Weather History & Observations

Time (EST) Temp. Windchill Dew Point Humidity Pressure Visibility Wind Dir Wind Speed Gust Speed Precip Events Conditions
12:24 AM 35.6 °F 28.0 °F 33.8 °F 93% 29.87 in 8.0 mi NW 10.4 mph - N/A   Overcast
12:42 AM 35.6 °F 29.2 °F 33.8 °F 93% 29.88 in 8.0 mi NW 8.1 mph - N/A   Overcast
12:51 AM 35.1 °F 27.9 °F 34.0 °F 96% 29.91 in 8.0 mi NW 9.2 mph - N/A   Overcast
1:14 AM 35.6 °F 28.6 °F 33.8 °F 93% 29.88 in 10.0 mi NW 9.2 mph - N/A   Overcast
1:25 AM 35.6 °F 28.6 °F 33.8 °F 93% 29.88 in 10.0 mi NW 9.2 mph - N/A   Overcast
1:51 AM 35.1 °F 27.9 °F 33.1 °F 92% 29.91 in 10.0 mi NW 9.2 mph - N/A   Overcast
1:09 AM 35.6 °F 31.7 °F 33.8 °F 93% 29.88 in 10.0 mi Variable 4.6 mph - N/A   Overcast
1:51 AM 35.1 °F 29.3 °F 33.1 °F 92% 29.92 in 10.0 mi WNW 6.9 mph - N/A   Overcast
2:51 AM 35.1 °F 27.4 °F 32.0 °F 89% 29.92 in 10.0 mi NW 10.4 mph 18.4 mph N/A   Overcast
3:12 AM 35.6 °F 28.0 °F 32.0 °F 87% 29.89 in 10.0 mi NW 10.4 mph - N/A   Overcast
3:51 AM 35.1 °F 31.0 °F 32.0 °F 89% 29.94 in 10.0 mi NNW 4.6 mph 19.6 mph N/A   Overcast
4:51 AM 34.0 °F 27.2 °F 30.9 °F 89% 29.94 in 10.0 mi NW 8.1 mph - N/A   Overcast
5:38 AM 33.8 °F 29.6 °F 30.2 °F 87% 29.92 in 9.0 mi NNW 4.6 mph - N/A   Overcast
5:51 AM 34.0 °F 28.0 °F 30.0 °F 85% 29.96 in 10.0 mi Variable 6.9 mph 20.7 mph N/A   Overcast
6:38 AM 33.8 °F 26.4 °F 30.2 °F 87% 29.94 in 10.0 mi NW 9.2 mph - N/A   Overcast
6:51 AM 33.1 °F 24.4 °F 30.0 °F 89% 29.98 in 10.0 mi WNW 11.5 mph 18.4 mph N/A   Overcast
7:51 AM 33.8 °F 25.8 °F 30.2 °F 87% 29.96 in 10.0 mi NW 10.4 mph 21.9 mph N/A   Overcast
8:51 AM 34.0 °F 25.0 °F 30.0 °F 85% 30.00 in 10.0 mi NW 12.7 mph 23.0 mph N/A   Overcast
9:51 AM 34.0 °F 26.6 °F 30.0 °F 85% 29.99 in 3.0 mi NW 9.2 mph 20.7 mph 0.00 in Snow Light Snow
10:51 AM 35.6 °F 29.2 °F 28.4 °F 75% 29.94 in 10.0 mi NNW 8.1 mph 19.6 mph N/A   Overcast
11:51 AM 35.1 °F 28.6 °F 28.0 °F 76% 29.99 in 10.0 mi West 8.1 mph - N/A   Overcast
12:51 PM 35.1 °F 26.9 °F 28.0 °F 76% 29.98 in 10.0 mi WNW 11.5 mph - N/A   Overcast
1:51 PM 34.0 °F 26.6 °F 28.9 °F 82% 29.98 in 10.0 mi NW 9.2 mph - N/A   Overcast
2:51 PM 34.0 °F 26.6 °F 28.9 °F 82% 29.99 in 10.0 mi WNW 9.2 mph 18.4 mph N/A   Overcast
3:51 PM 33.1 °F 26.1 °F 28.0 °F 82% 30.01 in 10.0 mi WNW 8.1 mph - N/A   Overcast
4:51 PM 32.0 °F 26.4 °F 28.9 °F 88% 30.02 in 10.0 mi NW 5.8 mph - 0.00 in   Overcast
5:51 PM 32.0 °F 24.2 °F 28.9 °F 88% 30.03 in 10.0 mi NW 9.2 mph - N/A   Overcast
6:51 PM 32.0 °F 25.6 °F 27.0 °F 82% 30.04 in 10.0 mi NW 6.9 mph - N/A   Overcast
7:51 PM 30.9 °F 24.3 °F 25.0 °F 79% 30.04 in 10.0 mi WNW 6.9 mph - N/A   Overcast
8:51 PM 30.9 °F 24.3 °F 24.1 °F 76% 30.05 in 10.0 mi WNW 6.9 mph - N/A   Overcast
9:01 PM 30.2 °F 23.4 °F 24.8 °F 80% 30.01 in 10.0 mi WNW 6.9 mph - N/A   Overcast
9:38 PM 30.2 °F 25.4 °F 24.8 °F 80% 30.00 in 10.0 mi NW 4.6 mph - N/A   Overcast
9:51 PM 30.9 °F 26.2 °F 24.1 °F 76% 30.05 in 10.0 mi WNW 4.6 mph - N/A   Overcast
10:51 PM 30.9 °F 25.2 °F 24.1 °F 76% 30.04 in 10.0 mi NW 5.8 mph - N/A   Overcast